FW0394 Weather Reports


Display with metric or nautical units.
time (UTC)temp
F
wind
direction
speed
MPH
gust
MPH
rain 1hr
in
rain 24hr
in
rain mn
in
humidity
%
barometer
mb
20260902003003 92 170 3.0 7.0 0.00 0.00 0.00 53 1009.5
20260902002503 92 167 3.0 9.0 0.00 0.00 0.00 52 1009.5
20260902002003 92 175 3.0 9.0 0.00 0.00 0.00 52 1009.5
20260902001713 93 181 4.0 10.0 0.00 0.00 0.00 51 1009.6
20260902001214 93 184 4.0 10.0 0.00 0.00 0.00 51 1009.5
20260902000503 93 173 5.0 10.0 0.00 0.00 0.00 50 1009.6
20260902000003 93 182 4.0 12.0 0.00 0.00 0.00 49 1009.6
20260901235503 94 193 3.0 12.0 0.00 0.00 0.00 49 1009.6
20260901235214 94 198 3.0 8.0 0.00 0.00 0.00 50 1009.6
20260901234503 94 210 2.0 7.0 0.00 0.00 0.00 51 1009.7
20260901234003 94 203 3.0 9.0 0.00 0.00 0.00 51 1009.8
20260901233505 94 203 3.0 9.0 0.00 0.00 0.00 52 1010.0
20260901233003 94 219 4.0 9.0 0.00 0.00 0.00 51 1010.0
20260901232503 94 221 4.0 11.0 0.00 0.00 0.00 50 1009.9
20260901232213 94 220 4.0 11.0 0.00 0.00 0.00 51 1009.9
20260901231503 95 210 4.0 11.0 0.00 0.00 0.00 49 1009.9
20260901231213 95 209 4.0 11.0 0.00 0.00 0.00 50 1009.9
20260901230503 95 204 4.0 10.0 0.00 0.00 0.00 51 1009.9
20260901230004 95 200 4.0 10.0 0.00 0.00 0.00 51 1010.0
20260901225503 95 197 4.0 11.0 0.00 0.00 0.00 52 1010.1
20260901225003 95 201 4.0 11.0 0.00 0.00 0.00 51 1010.1
20260901224503 96 208 4.0 11.0 0.00 0.00 0.00 52 1010.1
20260901224003 96 210 5.0 11.0 0.00 0.00 0.00 50 1010.2
20260901223503 96 218 5.0 16.0 0.00 0.00 0.00 50 1010.2
20260901223213 96 218 5.0 16.0 0.00 0.00 0.00 50 1010.2
20260901222504 96 209 5.0 12.0 0.00 0.00 0.00 49 1010.2
20260901222213 96 213 4.0 12.0 0.00 0.00 0.00 49 1010.2
20260901221503 96 210 6.0 16.0 0.00 0.00 0.00 49 1010.2
20260901221003 96 199 5.0 11.0 0.00 0.00 0.00 48 1010.3
20260901220714 96 191 6.0 14.0 0.00 0.00 0.00 48 1010.3
20260901220003 96 188 6.0 20.0 0.00 0.00 0.00 47 1010.4
20260901215714 96 194 5.0 20.0 0.00 0.00 0.00 47 1010.4
20260901215003 96 192 5.0 12.0 0.00 0.00 0.00 50 1010.4
20260901214503 96 203 4.0 10.0 0.00 0.00 0.00 50 1010.4
20260901214003 96 206 5.0 13.0 0.00 0.00 0.00 50 1010.5
20260901213503 96 202 6.0 13.0 0.00 0.00 0.00 49 1010.5
20260901213003 96 201 5.0 13.0 0.00 0.00 0.00 48 1010.5
20260901212503 96 197 5.0 13.0 0.00 0.00 0.00 49 1010.6
20260901212004 96 182 5.0 13.0 0.00 0.00 0.00 51 1010.7
20260901211714 95 175 5.0 12.0 0.00 0.00 0.00 51 1010.7
20260901211213 95 176 6.0 13.0 0.00 0.00 0.00 52 1010.7
20260901210503 95 176 7.0 13.0 0.00 0.00 0.00 51 1010.8
20260901210003 95 181 6.0 15.0 0.00 0.00 0.00 52 1010.9
20260901205714 95 179 6.0 15.0 0.00 0.00 0.00 51 1010.9
20260901205003 95 177 6.0 15.0 0.00 0.00 0.00 51 1010.9
20260901204503 95 188 6.0 13.0 0.00 0.00 0.00 50 1011.0
20260901204003 94 193 6.0 13.0 0.00 0.00 0.00 52 1011.1
20260901203503 94 189 6.0 14.0 0.00 0.00 0.00 51 1011.2
20260901203213 94 185 6.0 14.0 0.00 0.00 0.00 52 1011.2
20260901202503 94 182 6.0 15.0 0.00 0.00 0.00 52 1011.3
20260901202213 94 185 6.0 15.0 0.00 0.00 0.00 53 1011.4
20260901201503 94 192 6.0 11.0 0.00 0.00 0.00 52 1011.4
20260901201214 94 188 6.0 15.0 0.00 0.00 0.00 52 1011.4
20260901200503 94 164 6.0 15.0 0.00 0.00 0.00 53 1011.6
20260901200003 93 155 6.0 12.0 0.00 0.00 0.00 53 1011.6
20260901195504 94 155 6.0 13.0 0.00 0.00 0.00 51 1011.6
20260901195003 94 168 5.0 13.0 0.00 0.00 0.00 53 1011.6
20260901194503 93 179 4.0 9.0 0.00 0.00 0.00 55 1011.7
20260901194003 93 172 5.0 13.0 0.00 0.00 0.00 52 1011.8
20260901193503 93 171 5.0 13.0 0.00 0.00 0.00 52 1011.8
20260901193005 93 159 3.0 8.0 0.00 0.00 0.00 55 1011.8
20260901192503 93 149 4.0 11.0 0.00 0.00 0.00 55 1011.8
20260901192003 92 150 6.0 14.0 0.00 0.00 0.00 53 1011.9
20260901191503 92 160 6.0 14.0 0.00 0.00 0.00 52 1011.9
20260901191003 92 153 6.0 13.0 0.00 0.00 0.00 51 1012.1
20260901190503 92 137 6.0 13.0 0.00 0.00 0.00 55 1012.0
20260901190004 92 153 5.0 12.0 0.00 0.00 0.00 51 1012.2
20260901185503 92 160 4.0 11.0 0.00 0.00 0.00 52 1012.1
20260901185003 92 152 4.0 10.0 0.00 0.00 0.00 55 1012.2
20260901184503 91 159 5.0 11.0 0.00 0.00 0.00 55 1012.2
20260901184214 91 156 5.0 11.0 0.00 0.00 0.00 52 1012.2
20260901183503 91 169 5.0 10.0 0.00 0.00 0.00 57 1012.3
20260901183003 91 158 5.0 12.0 0.00 0.00 0.00 55 1012.2
20260901182503 91 147 4.0 12.0 0.00 0.00 0.00 55 1012.2
20260901182214 91 145 4.0 12.0 0.00 0.00 0.00 57 1012.3
20260901181503 90 153 5.0 11.0 0.00 0.00 0.00 54 1012.3
20260901181214 90 157 5.0 10.0 0.00 0.00 0.00 57 1012.4
20260901180504 90 151 5.0 12.0 0.00 0.00 0.00 57 1012.5
20260901180003 90 131 4.0 12.0 0.00 0.00 0.00 53 1012.5
20260901175503 90 145 3.0 10.0 0.00 0.00 0.00 59 1012.5
20260901175003 90 165 3.0 9.0 0.00 0.00 0.00 57 1012.6
20260901174503 89 156 3.0 9.0 0.00 0.00 0.00 57 1012.6
20260901174214 89 144 3.0 8.0 0.00 0.00 0.00 55 1012.7
20260901173503 89 144 4.0 10.0 0.00 0.00 0.00 61 1012.8
20260901173003 89 138 3.0 9.0 0.00 0.00 0.00 57 1012.7
20260901172503 88 130 3.0 8.0 0.00 0.00 0.00 58 1012.7
20260901172213 88 131 3.0 9.0 0.00 0.00 0.00 59 1012.8
20260901171503 88 148 2.0 9.0 0.00 0.00 0.00 60 1012.9
20260901171008 88 154 2.0 8.0 0.00 0.00 0.00 58 1012.9
20260901170503 88 151 4.0 7.0 0.00 0.00 0.00 61 1012.9
20260901170003 87 147 3.0 7.0 0.00 0.00 0.00 61 1012.8
20260901165503 87 143 4.0 8.0 0.00 0.00 0.00 62 1012.8
20260901165003 86 162 4.0 8.0 0.00 0.00 0.00 60 1012.9
20260901164503 86 188 3.0 8.0 0.00 0.00 0.00 60 1012.9
20260901164213 86 189 3.0 8.0 0.00 0.00 0.00 57 1012.9
20260901163712 86 185 3.0 8.0 0.00 0.00 0.00 59 1013.0
20260901163003 86 178 3.0 7.0 0.00 0.00 0.00 58 1012.9
20260901162503 85 188 3.0 8.0 0.00 0.00 0.00 60 1013.1
20260901162003 85 195 3.0 8.0 0.00 0.00 0.00 61 1013.1
20260901161503 85 182 3.0 9.0 0.00 0.00 0.00 61 1013.0
20260901161003 84 173 3.0 9.0 0.00 0.00 0.00 60 1013.1
20260901160503 84 179 3.0 8.0 0.00 0.00 0.00 59 1013.1
20260901160003 84 180 3.0 9.0 0.00 0.00 0.00 60 1013.1
20260901155503 84 181 3.0 9.0 0.00 0.00 0.00 60 1013.1
20260901155004 84 189 3.0 7.0 0.00 0.00 0.00 62 1013.0
20260901154503 83 198 3.0 8.0 0.00 0.00 0.00 62 1012.9
20260901154003 83 198 3.0 8.0 0.00 0.00 0.00 62 1012.9
20260901153714 83 197 3.0 8.0 0.00 0.00 0.00 63 1012.9
20260901153003 82 190 2.0 6.0 0.00 0.00 0.00 64 1012.8
20260901152503 82 181 2.0 5.0 0.00 0.00 0.00 65 1012.9
20260901152004 82 185 2.0 6.0 0.00 0.00 0.00 66 1012.8
20260901151503 82 181 2.0 6.0 0.00 0.00 0.00 65 1012.8
20260901151004 81 188 3.0 6.0 0.00 0.00 0.00 65 1012.9
20260901150503 81 192 3.0 6.0 0.00 0.00 0.00 64 1012.9
20260901150212 81 193 3.0 7.0 0.00 0.00 0.00 65 1012.9
20260901145503 81 193 3.0 7.0 0.00 0.00 0.00 65 1013.0
20260901145004 80 200 3.0 6.0 0.00 0.00 0.00 65 1013.0
20260901144503 80 209 3.0 6.0 0.00 0.00 0.00 66 1013.0
20260901144003 80 203 3.0 10.0 0.00 0.00 0.00 66 1013.0
20260901143503 80 187 3.0 10.0 0.00 0.00 0.00 65 1013.1
20260901143003 79 172 3.0 6.0 0.00 0.00 0.00 67 1013.1
20260901142713 79 172 3.0 5.0 0.00 0.00 0.00 69 1013.1
20260901142003 79 171 2.0 5.0 0.00 0.00 0.00 72 1013.1
20260901141504 78 170 2.0 5.0 0.00 0.00 0.00 73 1013.2
20260901141003 78 167 2.0 6.0 0.00 0.00 0.00 75 1013.3
20260901140504 78 147 2.0 6.0 0.00 0.00 0.00 77 1013.3
20260901140003 78 132 3.0 8.0 0.00 0.00 0.00 77 1013.2
20260901135503 77 133 3.0 8.0 0.00 0.00 0.00 77 1013.2
20260901135003 77 140 3.0 6.0 0.00 0.00 0.00 77 1013.3
20260901134504 77 141 3.0 7.0 0.00 0.00 0.00 78 1013.3
20260901134214 77 136 3.0 7.0 0.00 0.00 0.00 77 1013.3
20260901133503 77 127 2.0 5.0 0.00 0.00 0.00 79 1013.3
20260901133003 76 127 2.0 5.0 0.00 0.00 0.00 80 1013.2
20260901132503 76 125 1.0 4.0 0.00 0.00 0.00 80 1013.3
20260901132003 76 126 2.0 6.0 0.00 0.00 0.00 80 1013.3
20260901131503 76 129 1.0 6.0 0.00 0.00 0.00 80 1013.2
20260901131003 76 131 1.0 5.0 0.00 0.00 0.00 81 1013.2
20260901130503 76 130 2.0 4.0 0.00 0.00 0.00 81 1013.2
20260901130003 76 129 2.0 4.0 0.00 0.00 0.00 82 1013.2
20260901125503 76 129 2.0 4.0 0.00 0.00 0.00 82 1013.2
20260901125003 75 128 2.0 3.0 0.00 0.00 0.00 82 1013.2
20260901124505 75 129 2.0 3.0 0.00 0.00 0.00 82 1013.2
20260901124003 75 133 1.0 3.0 0.00 0.00 0.00 83 1013.1
20260901123503 75 134 1.0 4.0 0.00 0.00 0.00 83 1013.0
20260901123003 75 132 1.0 4.0 0.00 0.00 0.00 83 1013.0
20260901122712 75 131 2.0 4.0 0.00 0.00 0.00 83 1012.9
20260901122003 75 137 2.0 4.0 0.00 0.00 0.00 83 1012.7
20260901121713 75 140 2.0 4.0 0.00 0.00 0.00 83 1012.6
20260901121003 75 142 2.0 4.0 0.00 0.00 0.00 82 1012.6
20260901120503 75 138 2.0 4.0 0.00 0.00 0.00 81 1012.5
20260901120003 75 137 1.0 4.0 0.00 0.00 0.00 80 1012.5
20260901115503 75 136 1.0 4.0 0.00 0.00 0.00 80 1012.5
20260901115003 75 136 2.0 4.0 0.00 0.00 0.00 80 1012.5
20260901114503 75 137 1.0 4.0 0.00 0.00 0.00 81 1012.4
20260901114003 75 136 1.0 3.0 0.00 0.00 0.00 81 1012.5
20260901113714 75 136 1.0 3.0 0.00 0.00 0.00 81 1012.5
20260901113213 75 136 1.0 2.0 0.00 0.00 0.00 82 1012.6
20260901112503 75 136 0.0 2.0 0.00 0.00 0.00 82 1012.6
20260901112003 75 136 0.0 3.0 0.00 0.00 0.00 83 1012.5
20260901111503 75 136 0.0 3.0 0.00 0.00 0.00 83 1012.6
20260901111003 75 136 0.0 1.0 0.00 0.00 0.00 84 1012.6
20260901110714 76 136 0.0 1.0 0.00 0.00 0.00 84 1012.7
20260901110004 76 136 0.0 2.0 0.00 0.00 0.00 84 1012.6
20260901105503 76 136 1.0 3.0 0.00 0.00 0.00 84 1012.6
20260901105003 76 135 1.0 3.0 0.00 0.00 0.00 84 1012.6
20260901104503 76 135 1.0 3.0 0.00 0.00 0.00 84 1012.7
20260901104213 76 134 1.0 3.0 0.00 0.00 0.00 85 1012.7
20260901103503 76 135 0.0 3.0 0.00 0.00 0.00 85 1012.7
20260901103003 76 0 0.0 1.0 0.00 0.00 0.00 85 1012.7
20260901102503 76 0 0.0 0.0 0.00 0.00 0.00 85 1012.8
20260901102213 76 0 0.0 0.0 0.00 0.00 0.00 85 1012.9
20260901101503 76 0 0.0 0.0 0.00 0.00 0.00 85 1012.9
20260901101003 76 0 0.0 0.0 0.00 0.00 0.00 86 1012.8
20260901100503 76 0 0.0 0.0 0.00 0.00 0.00 86 1012.9
20260901100003 76 0 0.0 0.0 0.00 0.00 0.00 86 1012.9
20260901095714 76 0 0.0 0.0 0.00 0.00 0.00 86 1012.9
20260901095003 76 0 0.0 0.0 0.00 0.00 0.00 86 1013.0
20260901094503 76 0 0.0 0.0 0.00 0.00 0.00 86 1012.9
20260901094003 76 0 0.0 0.0 0.00 0.00 0.00 86 1013.0
20260901093714 76 0 0.0 0.0 0.00 0.00 0.00 87 1013.0
20260901093003 76 0 0.0 0.0 0.00 0.00 0.00 87 1013.1
20260901092505 76 131 0.0 1.0 0.00 0.00 0.00 87 1013.0
20260901092003 76 132 0.0 3.0 0.00 0.00 0.00 87 1013.0
20260901091503 77 137 1.0 3.0 0.00 0.00 0.00 87 1013.0
20260901091003 76 145 1.0 3.0 0.00 0.00 0.00 87 1013.0
20260901090503 76 147 0.0 3.0 0.00 0.00 0.00 87 1013.0
20260901090004 76 148 0.0 1.0 0.00 0.00 0.00 87 1013.1
20260901085503 76 148 0.0 1.0 0.00 0.00 0.00 87 1013.0
20260901085004 76 0 0.0 1.0 0.00 0.00 0.00 87 1012.9
20260901084508 76 0 0.0 1.0 0.00 0.00 0.00 87 1012.9
20260901084214 76 150 0.0 2.0 0.00 0.00 0.00 87 1013.0
20260901083713 76 151 0.0 3.0 0.00 0.00 0.00 87 1012.9
20260901083003 76 153 0.0 3.0 0.00 0.00 0.00 87 1012.8
20260901082503 76 0 0.0 0.0 0.00 0.00 0.00 87 1012.9
20260901082004 76 0 0.0 0.0 0.00 0.00 0.00 87 1012.9
20260901081503 76 0 0.0 0.0 0.00 0.00 0.00 87 1012.9
20260901081003 76 0 0.0 0.0 0.00 0.00 0.00 87 1012.9
20260901080503 76 0 0.0 0.0 0.00 0.00 0.00 88 1012.9
20260901080003 76 0 0.0 0.0 0.00 0.00 0.00 88 1012.9
20260901075503 76 0 0.0 0.0 0.00 0.00 0.00 87 1013.0
20260901075214 76 0 0.0 0.0 0.00 0.00 0.00 87 1013.0
20260901074503 76 0 0.0 0.0 0.00 0.00 0.00 87 1013.0
20260901074214 76 0 0.0 0.0 0.00 0.00 0.00 87 1013.0
20260901073503 76 0 0.0 0.0 0.00 0.00 0.00 87 1013.0
20260901073003 76 0 0.0 0.0 0.00 0.00 0.00 87 1013.0
20260901072712 76 0 0.0 0.0 0.00 0.00 0.00 87 1013.1
20260901072003 77 0 0.0 0.0 0.00 0.00 0.00 86 1013.1
20260901071503 77 0 0.0 0.0 0.00 0.00 0.00 86 1013.1
20260901071003 77 0 0.0 0.0 0.00 0.00 0.00 86 1013.3
20260901070503 77 0 0.0 0.0 0.00 0.00 0.00 86 1013.3
20260901070003 77 0 0.0 0.0 0.00 0.00 0.00 86 1013.3
20260901065504 77 0 0.0 0.0 0.00 0.00 0.00 86 1013.2
20260901065003 77 0 0.0 0.0 0.00 0.00 0.00 86 1013.1
20260901064714 77 0 0.0 0.0 0.00 0.00 0.00 86 1013.1
20260901064003 77 0 0.0 0.0 0.00 0.00 0.00 86 1013.2
20260901063503 77 0 0.0 0.0 0.00 0.00 0.00 86 1013.2
20260901063003 77 0 0.0 0.0 0.00 0.00 0.00 86 1013.1
20260901062714 77 0 0.0 0.0 0.00 0.00 0.00 85 1013.1
20260901062003 77 0 0.0 0.0 0.00 0.00 0.00 85 1013.2
20260901061503 77 0 0.0 0.0 0.00 0.00 0.00 85 1013.2
20260901061003 77 0 0.0 0.0 0.00 0.00 0.00 85 1013.2
20260901060714 77 0 0.0 0.0 0.00 0.00 0.00 84 1013.3
20260901060003 77 0 0.0 0.0 0.00 0.00 0.00 84 1013.3
20260901055503 77 0 0.0 0.0 0.00 0.00 0.00 84 1013.2
20260901055003 78 0 0.0 0.0 0.00 0.00 0.00 84 1013.3
20260901054714 78 0 0.0 0.0 0.00 0.00 0.00 84 1013.3
20260901054004 78 0 0.0 0.0 0.00 0.00 0.00 84 1013.4
20260901053714 78 0 0.0 0.0 0.00 0.00 0.00 84 1013.4
20260901053003 78 0 0.0 0.0 0.00 0.00 0.00 83 1013.5
20260901052503 78 0 0.0 0.0 0.00 0.00 0.00 83 1013.5
20260901052004 78 0 0.0 0.0 0.00 0.00 0.00 83 1013.4
20260901051503 78 0 0.0 0.0 0.00 0.00 0.00 82 1013.4
20260901051003 78 0 0.0 0.0 0.00 0.00 0.00 82 1013.3
20260901050714 78 0 0.0 0.0 0.00 0.00 0.00 82 1013.3
20260901050005 78 0 0.0 0.0 0.00 0.00 0.00 82 1013.4
20260901045503 78 0 0.0 0.0 0.00 0.00 0.00 81 1013.3
20260901045003 79 0 0.0 0.0 0.00 0.00 0.00 81 1013.3
20260901044714 79 0 0.0 0.0 0.00 0.00 0.00 81 1013.5
20260901044003 79 0 0.0 0.0 0.00 0.00 0.00 81 1013.3
20260901043503 79 0 0.0 0.0 0.00 0.00 0.00 81 1013.3
20260901043003 79 0 0.0 0.0 0.00 0.00 0.00 80 1013.2
20260901042503 79 0 0.0 0.0 0.00 0.00 0.00 81 1013.2
20260901042212 79 0 0.0 0.0 0.00 0.00 0.00 81 1013.3
20260901041503 79 0 0.0 0.0 0.00 0.00 0.00 80 1013.3
20260901041003 79 0 0.0 0.0 0.00 0.00 0.00 80 1013.3
20260901040503 79 0 0.0 0.0 0.00 0.00 0.00 80 1013.3
20260901040003 80 0 0.0 0.0 0.00 0.00 0.00 80 1013.3
20260901035503 80 0 0.0 0.0 0.00 0.00 0.00 80 1013.3
20260901035003 80 0 0.0 0.0 0.00 0.00 0.00 80 1013.2
20260901034503 80 0 0.0 0.0 0.00 0.00 0.00 79 1013.2
20260901034214 80 0 0.0 0.0 0.00 0.00 0.00 79 1013.1
20260901033503 80 0 0.0 0.0 0.00 0.00 0.00 79 1013.1
20260901033214 80 0 0.0 0.0 0.00 0.00 0.00 79 1012.9
20260901032503 80 0 0.0 0.0 0.00 0.00 0.00 79 1012.9
20260901032003 80 0 0.0 0.0 0.00 0.00 0.00 78 1012.9
20260901031504 80 0 0.0 0.0 0.00 0.00 0.00 79 1012.9
20260901031004 80 0 0.0 0.0 0.00 0.00 0.00 78 1013.0
20260901030713 81 0 0.0 0.0 0.00 0.00 0.00 78 1013.0
20260901030003 81 0 0.0 0.0 0.00 0.00 0.00 78 1013.0
20260901025503 81 0 0.0 0.0 0.00 0.00 0.00 77 1012.9
20260901025003 81 0 0.0 0.0 0.00 0.00 0.00 77 1012.8
20260901024503 81 0 0.0 0.0 0.00 0.00 0.00 77 1012.8
20260901024003 81 0 0.0 0.0 0.00 0.00 0.00 76 1012.6
20260901023503 81 0 0.0 0.0 0.00 0.00 0.00 76 1012.6
20260901023214 81 0 0.0 0.0 0.00 0.00 0.00 76 1012.6
20260901022503 81 0 0.0 0.0 0.00 0.00 0.00 76 1012.6
20260901022003 82 0 0.0 0.0 0.00 0.00 0.00 75 1012.5
20260901021503 82 0 0.0 0.0 0.00 0.00 0.00 74 1012.5
20260901021003 82 0 0.0 0.0 0.00 0.00 0.00 75 1012.4
20260901020503 82 0 0.0 0.0 0.00 0.00 0.00 74 1012.3
20260901020004 82 0 0.0 0.0 0.00 0.00 0.00 74 1012.3
20260901015504 82 0 0.0 0.0 0.00 0.00 0.00 74 1012.3
20260901015003 83 0 0.0 0.0 0.00 0.00 0.00 73 1012.1
20260901014714 83 0 0.0 0.0 0.00 0.00 0.00 74 1012.1
20260901014003 83 0 0.0 0.0 0.00 0.00 0.00 73 1012.1
20260901013503 83 0 0.0 0.0 0.00 0.00 0.00 72 1012.1
20260901013214 83 0 0.0 0.0 0.00 0.00 0.00 72 1012.2
20260901012504 84 0 0.0 0.0 0.00 0.00 0.00 73 1012.1
20260901012003 84 0 0.0 0.0 0.00 0.00 0.00 72 1012.0
20260901011503 84 0 0.0 0.0 0.00 0.00 0.00 72 1012.1
20260901011003 84 0 0.0 0.0 0.00 0.00 0.00 73 1012.1
20260901010503 84 0 0.0 0.0 0.00 0.00 0.00 72 1012.1
20260901010003 84 0 0.0 0.0 0.00 0.00 0.00 72 1012.1
20260901005503 84 0 0.0 0.0 0.00 0.00 0.00 71 1012.2
20260901005213 84 0 0.0 0.0 0.00 0.00 0.00 72 1012.2
20260901004503 85 0 0.0 0.0 0.00 0.00 0.00 71 1012.3
20260901004003 85 0 0.0 0.0 0.00 0.00 0.00 70 1012.3
20260901003714 85 0 0.0 0.0 0.00 0.00 0.00 69 1012.3